#timestamp,LO_Frequency,Hit,StdDev 
1456513215.8,286046998.9,N
1456513235.6,286046998.9,N
1456513255.5,286046997.3,N
1456513275.3,286046995.4,N
1456513295.1,286046995.0,N
1456513315.9,286046995.8,N
1456513335.7,286046994.1,N
1456513355.5,286046992.8,N
1456513375.4,286046990.6,Y
1456513395.2,286046994.4,P
1456513415.0,286046995.8,P
1456513415.9,286046995.8,P
1456513435.8,286046996.2,Y
1456513455.6,286047000.4,P
1456513475.4,286047002.6,N
1456513495.3,286047001.7,N
1456513515.1,286047000.7,N
1456513516.0,286047000.7,N
1456513535.8,286046997.0,N
1456513555.7,286046996.5,N
1456513575.5,286046999.1,N
1456513595.3,286046999.1,N
1456513615.2,286046997.3,N
1456513635.9,286046999.2,N
1456513655.7,286046999.6,N
1456513675.5,286046997.2,N
1456513695.4,286046995.1,N
1456513715.2,286046996.2,N
1456513735.0,286046994.6,N
1456513735.9,286046994.6,N
1456513755.8,286046996.2,N
1456513775.6,286046997.5,N
1456513795.4,286046998.0,N
1456513815.3,286046999.5,N
1456513835.1,286046997.4,N
1456513836.0,286046997.4,N
1456513855.8,286046995.6,N
1456513875.7,286046996.4,N
1456513895.5,286046995.3,N
1456513915.3,286046997.9,N
1456513935.2,286046996.1,N
1456513955.9,286046994.9,N
1456513975.7,286046997.1,N
1456513995.6,286046994.9,N
1456514015.4,286046992.9,Y
1456514035.2,286046993.4,P
1456514055.1,286046998.0,N
1456514056.0,286046998.0,N
1456514075.8,286046999.3,N
1456514095.6,286047001.1,N
1456514115.4,286046998.4,N
1456514135.3,286047002.7,N
1456514155.1,286047002.6,N
1456514175.8,286046999.8,N
1456514195.7,286047001.5,N
1456514215.5,286047004.6,N
1456514235.3,286047006.8,N
1456514255.2,286047008.6,N
1456514275.9,286047010.5,N
1456514295.7,286047006.6,N
1456514315.6,286047004.8,N
1456514335.4,286047008.9,N
1456514355.2,286047008.1,N
1456514375.1,286047008.7,N
1456514376.0,286047008.7,N
1456514395.8,286047010.6,N
1456514415.6,286047008.6,N
1456514435.4,286047008.4,N
1456514455.3,286047009.2,N
1456514475.1,286047004.8,N
1456514495.8,286047005.1,N
1456514515.7,286047007.4,N
1456514535.5,286047005.2,N
1456514555.3,286047006.9,N
1456514575.2,286047003.4,N
1456514595.9,286047001.9,N
1456514615.7,286047001.1,N
1456514635.6,286047002.6,N
1456514655.4,286047000.2,N
1456514675.2,286046996.8,N
1456514695.1,286046995.0,N
1456514696.0,286046995.0,N
1456514715.8,286046996.9,N
1456514735.6,286047001.1,N
1456514755.5,286046997.9,N
1456514775.3,286046998.8,N
1456514795.1,286046998.6,N
1456514815.8,286047000.0,N
1456514835.7,286047000.3,N
1456514855.5,286047001.1,N
1456514875.3,286046996.6,N
1456514895.2,286047002.1,N
1456514915.0,286046999.9,N
1456514915.9,286046999.9,N
1456514935.7,286047001.0,N
1456514955.6,286046999.5,N
1456514975.4,286047001.0,N
1456514995.2,286047000.9,N
1456515015.1,286047000.5,N
1456515016.0,286047000.5,N
1456515035.8,286046998.5,N
1456515055.6,286046998.1,N
1456515075.5,286046997.5,N
1456515095.3,286046994.4,N
1456515115.1,286046995.7,N
1456515135.9,286046996.4,N
1456515155.7,286046995.8,N
1456515175.5,286046997.2,N
1456515195.4,286046997.7,N
1456515215.2,286046994.3,N
1456515235.0,286046994.1,N
1456515235.9,286046994.1,N
1456515255.7,286046994.7,N
1456515275.6,286046993.6,N
1456515295.4,286046993.8,N
1456515315.3,286046991.8,Y
1456515335.1,286046995.7,P
1456515336.0,286046995.7,P
1456515355.8,286046998.0,N
1456515375.7,286046995.4,Y
1456515395.5,286047000.0,P
1456515415.3,286047002.1,N
1456515435.1,286047004.3,N
1456515455.9,286047001.8,N
1456515475.7,286047002.4,N
1456515495.5,286047006.0,N
1456515515.4,286047005.5,N
1456515535.2,286047003.7,N
1456515555.0,286047003.6,N
1456515555.9,286047003.6,N
1456515575.8,286047004.7,N
1456515595.6,286047007.5,Y
1456515615.4,286047004.3,P
1456515635.3,286047003.8,P
1456515655.1,286047006.0,P
1456515656.0,286047006.0,Y
1456515675.8,286047001.4,P
1456515695.7,286047002.2,N
1456515715.5,286047000.2,N
1456515735.3,286047002.3,N
1456515755.2,286047003.9,N
1456515775.9,286047003.3,N
1456515795.7,286047002.6,N
1456515815.6,286046999.2,N
1456515835.4,286046997.7,N
1456515855.2,286046997.9,N
1456515875.1,286046997.5,N
1456515876.0,286046997.5,N
1456515895.8,286046993.3,N
1456515915.6,286046994.5,N
1456515935.4,286046993.5,N
1456515955.3,286046994.0,N
1456515975.1,286046990.6,N
1456515995.8,286046989.2,N
1456516015.7,286046988.8,N
1456516035.5,286046989.0,N
1456516055.3,286046987.1,N
1456516075.2,286046984.6,N
1456516095.9,286046984.2,N
1456516115.7,286046987.7,N
1456516135.6,286046986.7,N
1456516155.4,286046985.6,N
1456516175.2,286046986.6,N
1456516195.1,286046986.2,N
1456516196.0,286046986.2,N
1456516215.8,286046989.7,N
1456516235.6,286046988.6,N
1456516255.5,286046987.6,N
1456516275.3,286046986.8,N
1456516295.1,286046984.0,N
1456516315.8,286046986.6,N
1456516335.7,286046984.4,N
1456516355.5,286046984.8,N
1456516375.3,286046984.3,Y
1456516395.2,286046994.3,P
1456516415.0,286046998.0,N
1456516415.9,286046998.0,N
1456516435.7,286046997.3,N
1456516455.6,286046995.5,N
1456516475.4,286046998.8,N
1456516495.2,286047001.2,N
1456516515.1,286047000.8,N
1456516516.0,286047000.8,N
1456516535.8,286047000.9,N
1456516555.6,286047001.2,N
1456516575.5,286047002.3,N
1456516595.3,286047003.7,N
1456516615.1,286047007.3,N
1456516635.9,286047005.4,N
1456516655.7,286047005.1,N
1456516675.5,286047005.4,N
1456516695.4,286047002.9,N
1456516715.2,286047006.9,N
1456516735.0,286047006.5,N
1456516735.9,286047006.5,N
1456516755.8,286047008.4,N
1456516775.6,286047006.5,N
1456516795.4,286047003.2,N
